FW1856 Weather Reports


time (UTC)temp
F
wind
direction
speed
knots
gust
knots
rain 1hr
in
rain 24hr
in
rain mn
in
humidity
%
barometer
mb
20260503181144 68 319 4.3 12.2 0.00 0.00 0.00 56 1014.8
20260503180122 66 310 6.1 16.5 0.00 0.00 0.00 57 1014.7
20260503175122 66 308 6.1 15.6 0.00 0.00 0.00 59 1014.9
20260503174122 68 347 3.5 13.9 0.00 0.00 0.00 56 1014.9
20260503173123 71 355 5.2 15.6 0.00 0.00 0.00 53 1014.7
20260503172122 70 343 2.6 7.0 0.00 0.00 0.00 56 1014.8
20260503171122 68 319 2.6 7.0 0.00 0.00 0.00 57 1014.9
20260503170144 68 327 1.7 5.2 0.00 0.00 0.00 60 1014.9
20260503160122 65 319 1.7 8.7 0.00 0.00 0.00 64 1015.3
20260503150122 61 348 1.7 5.2 0.00 0.00 0.00 71 1015.5
20260503140143 55 314 0.0 0.0 0.00 0.00 0.00 83 1015.5
20260503131122 53 316 0.0 0.0 0.00 0.00 0.00 85 1015.4
20260503130122 53 315 0.0 0.0 0.00 0.00 0.00 85 1015.2
20260503120122 53 314 0.0 0.0 0.00 0.00 0.00 85 1015.1
20260503110122 54 314 0.0 0.0 0.00 0.00 0.00 84 1015.2
20260503100123 55 316 0.0 0.0 0.00 0.00 0.00 79 1015.3
20260503090122 56 333 0.0 2.6 0.00 0.00 0.00 79 1015.1
20260503081122 57 314 0.0 0.0 0.00 0.00 0.00 79 1015.0
20260503080122 57 332 0.0 1.7 0.00 0.00 0.00 78 1014.9
20260503072123 58 359 0.0 0.0 0.00 0.00 0.00 78 1014.7
20260503071122 58 359 0.0 0.0 0.00 0.00 0.00 78 1014.7
20260503060122 60 359 0.0 0.0 0.00 0.00 0.00 74 1014.4
20260503054122 61 359 0.0 0.0 0.00 0.00 0.00 73 1014.2
20260503053122 61 359 0.0 2.6 0.00 0.00 0.00 72 1014.3
20260503052123 62 359 0.0 0.0 0.00 0.00 0.00 71 1014.2
20260503051122 62 359 0.0 1.7 0.00 0.00 0.00 70 1014.2
20260503050145 62 359 0.0 1.7 0.00 0.00 0.00 69 1014.2
20260503045123 63 359 0.0 0.0 0.00 0.00 0.00 68 1014.2
20260503044122 63 359 0.0 0.0 0.00 0.00 0.00 67 1014.1
20260503043122 64 358 0.9 4.3 0.00 0.00 0.00 66 1014.1
20260503042122 65 346 0.0 2.6 0.00 0.00 0.00 63 1014.0
20260503041123 66 305 2.6 7.0 0.00 0.00 0.00 60 1014.0
20260503040122 66 328 1.7 5.2 0.00 0.00 0.00 60 1013.9
20260503035123 66 328 1.7 5.2 0.00 0.00 0.00 59 1013.9
20260503034123 66 337 2.6 8.7 0.00 0.00 0.00 58 1013.7
20260503033122 67 345 2.6 8.7 0.00 0.00 0.00 56 1013.6
20260503032123 69 313 3.5 13.9 0.00 0.00 0.00 50 1013.4
20260503031122 70 307 2.6 9.6 0.00 0.00 0.00 47 1013.4
20260503030122 70 298 2.6 11.3 0.00 0.00 0.00 47 1013.4
20260503025122 71 302 3.5 13.9 0.00 0.00 0.00 45 1013.3
20260503024143 71 306 1.7 11.3 0.00 0.00 0.00 44 1013.4
20260503023122 71 307 2.6 16.5 0.00 0.00 0.00 44 1013.4
20260503022123 72 292 1.7 9.6 0.00 0.00 0.00 43 1013.4
20260503021122 72 283 2.6 13.9 0.00 0.00 0.00 43 1013.4
20260503020122 72 312 2.6 12.2 0.00 0.00 0.00 42 1013.5
20260503015122 72 293 3.5 20.9 0.00 0.00 0.00 41 1013.4
20260503014122 73 300 2.6 9.6 0.00 0.00 0.00 40 1013.6
20260503013123 73 302 3.5 15.6 0.00 0.00 0.00 39 1013.6
20260503012122 74 310 2.6 15.6 0.00 0.00 0.00 38 1013.7
20260503011122 74 306 3.5 13.9 0.00 0.00 0.00 39 1013.9
20260503010122 74 305 3.5 16.5 0.00 0.00 0.00 41 1013.9
20260503005122 74 295 2.6 13.9 0.00 0.00 0.00 41 1013.9
20260503004122 75 301 1.7 12.2 0.00 0.00 0.00 39 1014.0
20260503003122 75 282 1.7 12.2 0.00 0.00 0.00 39 1014.0
20260503002122 75 300 3.5 16.5 0.00 0.00 0.00 39 1014.2
20260503001122 75 294 3.5 15.6 0.00 0.00 0.00 41 1014.3
20260503000122 74 286 2.6 12.2 0.00 0.00 0.00 44 1014.4
20260502235122 74 317 4.3 15.6 0.00 0.00 0.00 45 1014.5
20260502234122 75 292 3.5 15.6 0.00 0.00 0.00 44 1014.7
20260502233123 75 307 3.5 16.5 0.00 0.00 0.00 45 1014.8
20260502232123 76 305 2.6 15.6 0.00 0.00 0.00 43 1014.7
20260502231122 75 306 6.1 22.6 0.00 0.00 0.00 44 1014.9
20260502230122 75 306 6.1 20.9 0.00 0.00 0.00 45 1015.0
20260502225122 74 300 4.3 18.2 0.00 0.00 0.00 46 1015.3
20260502224122 74 310 7.0 20.9 0.00 0.00 0.00 47 1015.3
20260502223122 74 292 4.3 13.9 0.00 0.00 0.00 45 1015.5
20260502222122 74 308 5.2 16.5 0.00 0.00 0.00 47 1015.5
20260502221122 74 313 4.3 16.5 0.00 0.00 0.00 49 1015.8
20260502220122 72 309 7.8 20.9 0.00 0.00 0.00 49 1015.8
20260502215122 73 304 5.2 18.2 0.00 0.00 0.00 49 1015.9
20260502214122 72 311 5.2 20.9 0.00 0.00 0.00 52 1016.1
20260502213143 71 311 4.3 16.5 0.00 0.00 0.00 56 1016.3
20260502212122 71 297 2.6 9.6 0.00 0.00 0.00 56 1016.5
20260502211143 70 311 4.3 15.6 0.00 0.00 0.00 56 1016.5
20260502210122 70 318 3.5 15.6 0.00 0.00 0.00 58 1016.6
20260502205122 70 317 4.3 13.9 0.00 0.00 0.00 59 1016.8
20260502204122 71 324 5.2 15.6 0.00 0.00 0.00 57 1016.8
20260502203122 71 313 4.3 15.6 0.00 0.00 0.00 57 1016.8
20260502202122 71 323 2.6 11.3 0.00 0.00 0.00 57 1016.9
20260502201122 70 323 3.5 12.2 0.00 0.00 0.00 57 1017.1
20260502200124 70 334 4.3 16.5 0.00 0.00 0.00 60 1017.1
20260502195122 69 323 6.1 16.5 0.00 0.00 0.00 59 1017.3
20260502194122 70 336 4.3 13.9 0.00 0.00 0.00 61 1017.3
20260502193122 69 358 7.0 18.2 0.00 0.00 0.00 61 1017.4
20260502192122 69 351 5.2 15.6 0.00 0.00 0.00 62 1017.4
20260502191122 69 324 4.3 15.6 0.00 0.00 0.00 62 1017.4
20260502190144 69 350 5.2 15.6 0.00 0.00 0.00 62 1017.5
20260502185143 67 320 2.6 11.3 0.00 0.00 0.00 64 1017.5
20260502184144 67 341 3.5 12.2 0.00 0.00 0.00 65 1017.5
20260502183122 66 336 4.3 15.6 0.00 0.00 0.00 67 1017.6
20260502182123 65 327 3.5 11.3 0.00 0.00 0.00 66 1017.6